User: anonymous   Login
Location: Unspecified
(0.0000°N, 0.0000°E)
Time: 18:37:40
(UTC+00:00)
Language:

GALILEO 7 (263) - Orbit

View from above orbital plane
View from above orbital plane
View from above satellite
View from above satellite

Ground track
Ground track

The orbit data is extracted from the following two-line orbital elements,

1 40544U 15017A   23336.82345748 -.00000089  00000-0  00000-0 0  9997
2 40544  56.9134   6.8358 0005375 257.2844 102.7069  1.70476151 53396
Epoch (UTC): 02 December 2023 19:45:46
Eccentricity: 0.0005375
inclination: 56.9134°
perigee height: 23206 km
apogee height: 23237 km
right ascension of ascending node: 6.8358°
argument of perigee: 257.2844°
revolutions per day: 1.70476151
mean anomaly at epoch: 102.7069°
orbit number at epoch: 5339

The dashed part of the orbit path shows where the satellite is in the earth's shadow,  

DLR